www.pogodaiklimat.ru

Погода и климат >> Архив погоды >> Вьетнам >> Камау


ПОГОДА в Камау

  • Прогноз погоды в Камау
  • Монитор погоды в Камау

АРХИВ ПОГОДЫ в Камау

Время (UTC), дата Ветер
(напр.,м/с)
 
Видим.   Явления Облачность Т
(С)
Тd
(С)
f
(%)
Тe
(С)
Тes
(С)
Комфортность P
(гПа)
Po
(гПа)
Тmin
(С)
Tmax
(С)
R
(мм)
R24
(мм)
S
(см)
09 17.06 ЮЗ 2 20 км 9/9 600 м
[Cu Sc]
+29.4 +24.5 75 +42 +42 опасность
перегрева
1007.9 1007.7
12 17.06 З 1 20 км 9/9
[Cu Sc]
+28.6 +25.9 85 +43 +43 опасность
перегрева
1008.7 1008.5 +29.7 8
15 17.06 Ю 1 10 км слаб. дождь {гроза} 10/10 300 м
[Cu Sc]
+25.9 +24.9 94 +37 +37 очень
душно
1011.4 1011.2
18 17.06 ЮЗ 1 10 км слаб. ливневой дождь {гроза} 10/10 300 м
[Cb cap]
+24.8 +23.3 91 +33 +33 очень
душно
1010.5 1010.3 21
21 17.06 штиль 0 10 км слаб. дождь 10/10 600 м
[Cu Sc]
+25.6 +24.8 95 +36 +36 очень
душно
1009.3 1009.1
00 18.06 штиль 0 20 км {ливн. осадки, дождь} 9/9
[Cu Sc]
+26.0 +25.2 95 +37 +38 очень
душно
1009.1 1008.9 +24.4 22
03 18.06 ЮЗ 2 20 км 9/9 600 м
[Cu Sc]
+29.4 +25.7 81 +44 +45 опасность
перегрева
1010.1 1009.9
06 18.06 ЮЗ 3 20 км {ливн. осадки} 9/9 600 м
[Cu Sc]
+27.0 +24.7 87 +38 +40 очень
душно
1009.4 1009.2 3
09 18.06 З 3 20 км 9/9 600 м
[Cu Sc]
+28.2 +25.6 86 +42 +42 опасность
перегрева
1008.4 1008.2
12 18.06 З 2 20 км {ливн. осадки} 9/9 600 м
[Cu Sc]
+26.4 +24.2 88 +37 +37 очень
душно
1008.7 1008.5 +30.3 4
15 18.06 З 2 4000 м ливневой дождь 10/10 300 м
[Cb cap]
+24.8 +23.7 94 +34 +34 очень
душно
1010.7 1010.5
18 18.06 ЮЗ 1 20 км {ливн. осадки} 9/8 600 м
[Cu Sc Ci fib]
+26.2 +24.6 91 +37 +37 очень
душно
1009.8 1009.6 2
21 18.06 З 2 20 км 9/8 600 м
[Cu Sc Ci fib]
+27.0 +24.4 86 +38 +38 очень
душно
1008.2 1008.0
00 19.06 В 1 20 км 9/9
[Cu Sc]
+27.2 +25.0 88 +39 +39 очень
душно
1009.2 1009.0 +24.6 2
03 19.06 З 2 20 км 9/6 600 м
[Cu Sc Cs]
+31.2 +23.8 65 +43 +48 опасность
перегрева
1009.5 1009.3
06 19.06 З 1 20 км 9/4 600 м
[Cu Sc Cs]
+33.2 +24.2 59 +45 +57 опасность
перегрева
1008.1 1007.9 2
09 19.06 З 3 20 км 9/3 600 м
[Cu med, cong Cs]
+32.5 +24.4 62 +45 +48 опасность
перегрева
1006.5 1006.3
12 19.06 З 1 20 км 9/3
[Cu med, cong Cs]
+29.9 +25.9 79 +45 +45 опасность
перегрева
1007.2 1007.0 +33.9 2
15 19.06 ЮЗ 2 20 км 9/3 600 м
[Cu med, cong Cs]
+29.0 +26.2 85 +44 +44 опасность
перегрева
1008.5 1008.3
18 19.06 З 1 20 км 9/3 600 м
[Cu med, cong Cs]
+28.6 +26.3 87 +43 +43 опасность
перегрева
1008.4 1008.2
21 19.06 З 1 20 км 9/3 600 м
[Cu med, cong Cs]
+28.0 +26.6 92 +43 +43 опасность
перегрева
1007.8 1007.6
00 20.06 штиль 0 20 км 9/3 600 м
[Cu med, cong Cs]
+28.9 +27.3 91 +46 +48 опасность
перегрева
1009.0 1008.8 +27.6
03 20.06 З 2 20 км 9/5 600 м
[Cu med, cong Cs]
+32.1 +26.2 71 +48 +55 опасность
перегрева
1009.3 1009.1
06 20.06 З 2 20 км {ливн. осадки} 9/6 600 м
[Cu med, cong Cs]
+32.7 +25.2 65 +47 +53 опасность
перегрева
1007.7 1007.5 3
09 20.06 ЮЗ 2 20 км 9/6 600 м
[Cb cap Cs]
+31.4 +25.5 71 +46 +48 опасность
перегрева
1007.3 1007.1
12 20.06 З 2 20 км 9/4
[Cu med, cong Cs]
+28.6 +25.2 82 +42 +42 опасность
перегрева
1008.0 1007.8 +33.5 3
15 20.06 З 1 20 км 9/4 600 м
[Cu med, cong Cs]
+28.8 +26.5 87 +44 +44 опасность
перегрева
1008.5 1008.3
18 20.06 З 1 20 км 9/9 600 м
[Cu Sc]
+28.4 +26.7 91 +44 +44 опасность
перегрева
1007.5 1007.3
21 20.06 штиль 0 20 км 9/9 600 м
[Cu Sc]
+28.6 +26.6 89 +44 +44 опасность
перегрева
1006.9 1006.7
00 21.06 штиль 0 20 км 9/9 600 м
[Cu Sc]
+29.0 +26.9 88 +45 +46 опасность
перегрева
1008.3 1008.1 +28.1
03 21.06 В 2 20 км 9/8 600 м
[Cu Sc Ci fib]
+31.1 +26.8 78 +48 +51 опасность
перегрева
1008.3 1008.1
06 21.06 З 3 20 км 9/6 600 м
[Cu med, cong Cs]
+31.9 +26.2 72 +48 +53 опасность
перегрева
1006.9 1006.7
09 21.06 В 2 20 км 9/5 600 м
[Cb cap Ci fib]
+31.6 +26.6 75 +49 +51 опасность
перегрева
1005.6 1005.4
12 21.06 З 3 20 км 9/4 600 м
[Cu med, cong Cs]
+29.8 +26.4 82 +46 +46 опасность
перегрева
1006.4 1006.2 +33.1
15 21.06 З 1 20 км 9/4 600 м
[Cu med, cong Cs]
+29.2 +26.4 85 +45 +45 опасность
перегрева
1007.9 1007.7
18 21.06 З 2 20 км 9/9 600 м
[Cu Sc]
+29.0 +27.0 89 +46 +46 опасность
перегрева
1006.4 1006.2
21 21.06 штиль 0 20 км 9/9 600 м
[Cu Sc]
+28.8 +27.1 91 +46 +46 опасность
перегрева
1005.2 1005.0
00 22.06 штиль 0 20 км 9/9 600 м
[Cu Sc]
+29.0 +27.2 90 +46 +46 опасность
перегрева
1006.3 1006.1 +28.5
03 22.06 З 2 20 км 9/9 600 м
[Cu Sc]
+31.5 +25.6 71 +46 +48 опасность
перегрева
1006.2 1006.0
06 22.06 З 3 20 км {ливн. осадки} 9/9 600 м
[Cu Sc]
+30.4 +26.3 79 +46 +48 опасность
перегрева
1004.8 1004.6 0.3
09 22.06 З 1 10 км гроза, ливневой дождь 10/10 300 м
[Cb cap]
+25.6 +25.0 96 +36 +36 очень
душно
1005.2 1005.0
12 22.06 З 1 10 км ливневой дождь {гроза} 10/10 300 м
[Cb cap]
+25.8 +25.3 97 +37 +37 очень
душно
1007.5 1007.3 +32.5 80
15 22.06 штиль 0 10 км {ливн. осадки} 9/9 600 м
[Cu Sc]
+25.2 +24.6 96 +35 +35 очень
душно
1007.0 1006.8
18 22.06 Ю 2 10 км {ливн. осадки} 9/9 600 м
[Cu Sc]
+25.4 +24.5 95 +36 +36 очень
душно
1007.3 1007.1 2
21 22.06 штиль 0 10 км 9/9 600 м
[Cu Sc]
+25.4 +24.5 95 +36 +36 очень
душно
1005.3 1005.1
00 23.06 Ю 1 20 км 9/4
[Cu Sc Cs]
+25.8 +24.9 95 +37 +38 очень
душно
1006.9 1006.7 +25.0 2
03 23.06 З 2 20 км 9/6 600 м
[Cu Sc Cs]
+29.8 +24.3 72 +42 +47 опасность
перегрева
1006.8 1006.6
06 23.06 Ю 3 20 км 9/3 600 м
[Cu med, cong Ac lent Cs]
+32.0 +24.0 63 +44 +50 опасность
перегрева
1006.3 1006.1 2
09 23.06 З 3 20 км {ливн. осадки} 9/3 600 м
[Cb cap Ac lent Cs]
+31.2 +25.2 70 +45 +47 опасность
перегрева
1004.9 1004.7
12 23.06 З 2 20 км {ливн. осадки} 9/4 600 м
[Cu med, cong Cs]
+28.8 +25.4 82 +42 +42 опасность
перегрева
1006.3 1006.1 +32.6 0.8
15 23.06 Ю 2 20 км 9/4 600 м
[Cu med, cong Cs]
+28.0 +26.3 91 +43 +43 опасность
перегрева
1008.6 1008.4
18 23.06 Ю 2 20 км 9/4 600 м
[Cu med, cong Cs]
+28.0 +25.4 86 +41 +41 опасность
перегрева
1008.6 1008.4
21 23.06 ЮЗ 3 20 км 9/4 600 м
[Cu med, cong Cs]
+27.6 +25.3 87 +40 +40 очень
душно
1006.7 1006.5
00 24.06 ЮЗ 1 20 км 9/8 600 м
[Cb cap Ci fib]
+28.0 +26.3 91 +43 +43 опасность
перегрева
1008.5 1008.3 +27.0
03 24.06 Ю 1 18 км {ливн. осадки} 9/4 600 м
[Cu med, cong Cs]
+31.7 +25.5 70 +46 +56 опасность
перегрева
1009.5 1009.3
06 24.06 ЮЗ 1 20 км {ливн. осадки} 9/5 600 м
[Cu med, cong Cs]
+33.0 +25.2 64 +47 +57 опасность
перегрева
1008.2 1008.0 0.2

 

Местоположение метеостанции Камау (Вьетнам): широта 9.18 долгота 105.15 высота над уровнем моря 2 м.

В архиве по умолчанию представлена погода в Камау за последнюю неделю. Архивные данные за месяц целиком и за предыдущие месяцы, начиная с января 2011 года, Вы можете получить, выбрав интересующий диапазон дат из раскрывающегося списка и нажав кнопку "Ввод!".


*Определитесь, кто Вы:
робот инопланетянин человек

Внимание! Время в таблицах - всемирное. Для получения местного времени необходимо прибавить поправку, которая равна 7 ч.

Смотрите также архив погоды в соседних городах и на ближайших метеорологических станциях:

Погода в Ратьзя (Вьетнам) (92 км)
Погода в Коншоне (Вьетнам) (169 км)
Погода на Фукуоке (Вьетнам) (174 км)
Погода на Тхочу (Вьетнам) (186 км)
Погода в Хабе (Вьетнам) (237 км)
Погода в Фантхьете (Вьетнам) (377 км)
Погода в Клонг Яй (Таиланд) (380 км)
Погода в Мерсинге (Малайзия) (440 км)
Погода в Кота-Бхару (Малайзия) (461 км)
Погода в Наратхивате (Таиланд) (479 км)

Пояснения к столбцам:

Ветер - указаны скорость ветра в м/с - средняя за 10 мин, порывы в срок и между сроками (в фигурных скобках) и направление, откуда дует ветер: С - северный, СВ - северо-восточный, В - восточный, ЮВ - юго-восточный, Ю - южный, ЮЗ - юго-западный, З - западный, СЗ - северо-западный.
Видимость - горизонтальная дальность видимости в метрах или километрах. При видимости от 1 до 10 км при отсутствии осадков обычно наблюдается дымка, при ухудшении видимости до 1 км и менее - туман. В сухую погоду видимость может ухудшаться дымом, пылью или мглою.
Явления - указаны атмосферные явления, наблюдавшиеся в срок или в последний час перед сроком; фигурными скобками обозначены явления, наблюдавшиеся между сроками (за 1-3 часа до срока); квадратными скобками обозначены град или гололедные отложения с указанием их диаметра в мм.
Облачность - указаны через наклонную черту общая и нижняя облачность в баллах и высота нижней границы облаков в метрах; квадратными скобками обозначены формы облаков: Ci - перистые, Cs - перисто-слоистые, Cc - перисто-кучевые, Ac - высококучевые, As - высокослоистые, Sc - слоисто-кучевые, Ns - слоисто-дождевые, Cu - кучевые, Cb - кучево-дождевые. Подробнее классификацию облаков см. в Атласе облаков (PDF).
T - Температура воздуха - температура, измеренная на высоте 2 м над землей.
Td - Температура точки росы - температура, при понижении до которой содержащийся в воздухе водяной пар достигнет насыщения.
f - Относительная влажность воздуха - влажноcть воздуха, измеренная на высоте 2 м над землей.
Te - Эффективная температура - температура, которую ощущает одетый по сезону человек в тени. Характеристика душности погоды. При расчете учитывается влияние влажности воздуха и скорости ветра на теплоощущения человека.
Tes - Эффективная температура на солнце - температура, которую ощущает человек, с поправкой на солнечный нагрев. Характеристика знойности погоды. Зависит от высоты солнца над горизонтом, облачности и скорости ветра. Ночью, в пасмурную погоду, а также при ветре 12 м/с и более поправка равна нулю.
P - Атмосферное давление - приведенное к уровню моря атмосферное давление.
Po - Атмосферное давление - измеренное на уровне метеостанции атмосферное давление.
Tmin - Минимальная температура - минимум температуры воздуха на высоте 2 м над землей.
Tmax - Максимальная температура - максимум температуры воздуха на высоте 2 м над землей.
R - Количество осадков - Количество выпавших осадков за период времени, мм. При наведении курсора мыши на число - период времени, за который выпало указанное количество осадков.
R24 - Количество осадков - Количество выпавших осадков за 24 часа, мм.
S - Снежный покров - Высота снежного покрова, см. При наведении курсора мыши на число - состояние снежного покрова и степень покрытия местности в баллах.